Change the Weather History Date:

Friday, October 19, 2012

  Actual Average Record
Temperature  
Mean Temperature 52 °F -  
Max Temperature 57 °F - - ()
Min Temperature 45 °F - - ()
Degree Days  
Heating Degree Days 14    
Growing Degree Days 2 (Base 50)    
Moisture  
Dew Point 46 °F    
Average Humidity 82    
Maximum Humidity 96    
Minimum Humidity 42    
Precipitation  
Precipitation 0.55 in - - ()
Sea Level Pressure  
Sea Level Pressure 29.71 in    
Wind  
Wind Speed 3 mph ()    
Max Wind Speed 7 mph    
Max Gust Speed -    
T = Trace of Precipitation, MM = Missing Value Source: Averaged Metar Reports

Daily Weather History Graph

Daily Weather History Graph

Search for Another Location

Airport or City:

Trip Planner

Search our weather history database for the weather conditions in past years. The results will help you decide how hot, cold, wet, or windy it might be!

Date:

Astronomy

Oct. 19, 2012 Rise Set
Actual Time 7:41 AM PDT 6:13 PM PDT
Civil Twilight 7:08 AM PDT 6:45 PM PDT
Nautical Twilight 6:31 AM PDT 7:22 PM PDT
Astronomical Twilight 5:54 AM PDT 7:59 PM PDT
Moon 12:48 PM PDT 9:39 PM PDT
Length of Visible Light 11h 37m
Length of Day
10h 32m
Waxing Crescent, 24% of the Moon is Illuminated
Oct 19
Waxing Crescent
Oct 21
First Quarter
Oct 29
Full
Nov 6
Last Quarter
Nov 13
New

Hourly Weather History & Observations

Time (PDT) Temp. Dew Point Humidity Pressure Visibility Wind Dir Wind Speed Gust Speed Precip Events Conditions
12:00 AM 50.7 °F 48.6 °F 92% 29.73 in - East 6.9 mph - 0.02 in   Unknown
1:00 AM 51.3 °F 48.9 °F 92% 29.69 in - ENE 5.8 mph - 0.10 in   Unknown
2:00 AM 51.6 °F 50.0 °F 94% 29.68 in - NE 3.5 mph - 0.16 in   Unknown
3:00 AM 52.3 °F 51.1 °F 95% 29.67 in - NE 2.3 mph - 0.27 in   Unknown
4:00 AM 52.7 °F 50.9 °F 94% 29.66 in - ENE 2.3 mph - N/A   Unknown
5:00 AM 53 °F 51 °F 89% 29.66 in - North 2.3 mph - -  
5:00 AM 52.5 °F 50.7 °F 94% 29.66 in - North 2.3 mph - N/A   Unknown
6:00 AM 52.9 °F 51.3 °F 94% 29.68 in - North 2.3 mph - N/A   Unknown
7:00 AM 52.7 °F 51.4 °F 95% 29.69 in - NNE 1.2 mph - N/A   Unknown
8:00 AM 52.2 °F 51.1 °F 96% 29.70 in - Calm Calm - N/A   Unknown
9:00 AM 51.8 °F 50.5 °F 95% 29.71 in - North 1.2 mph - N/A   Unknown
10:00 AM 52.9 °F 50.9 °F 93% 29.73 in - Calm Calm - N/A   Unknown
11:00 AM 54 °F 49 °F 76% 29.74 in - WNW 2.3 mph - -  
11:00 AM 54.0 °F 48.6 °F 82% 29.74 in - WNW 2.3 mph - N/A   Unknown
12:00 PM 54.0 °F 47.8 °F 80% 29.75 in - WSW 1.2 mph - N/A   Unknown
1:00 PM 53.8 °F 48.7 °F 83% 29.75 in - SW 1.2 mph - N/A   Unknown
2:00 PM 52.5 °F 46.6 °F 80% 29.74 in - Calm Calm - N/A   Unknown
3:00 PM 56.7 °F 43.0 °F 60% 29.73 in - West 1.2 mph - N/A   Unknown
4:00 PM 52.5 °F 37.2 °F 56% 29.73 in - WNW 3.5 mph - N/A   Unknown
5:00 PM 52 °F 36 °F 42% 29.72 in - West 4.6 mph - -  
5:00 PM 51.8 °F 35.6 °F 54% 29.72 in - West 4.6 mph - N/A   Unknown
6:00 PM 48.4 °F 37.6 °F 66% 29.71 in - NNW 2.3 mph - N/A   Unknown
7:00 PM 48.2 °F 36.0 °F 63% 29.70 in - NNW 4.6 mph - N/A   Unknown
8:00 PM 46.8 °F 39.7 °F 77% 29.70 in - NE 2.3 mph - N/A   Unknown
9:00 PM 46.4 °F 43.2 °F 88% 29.70 in - NNE 2.3 mph - N/A   Unknown
10:00 PM 46.4 °F 44.1 °F 92% 29.70 in - Calm Calm - N/A   Unknown
11:00 PM 46 °F 42 °F 83% 29.71 in - West 1.2 mph - -  
11:00 PM 45.9 °F 42.4 °F 88% 29.71 in - West 1.2 mph - N/A   Unknown